Wind_Speed
32 33 35 36 38 39 41 42 43 45 47 48 50 51 52 54 55 57 58 59 60 61 62 63 63 63 63 62 62 61 61 61 62 63 64 63 62 62
34 35 36 38 39 41 42 44 45 47 49 50 51 52 53 55 55 56 57 59 60 61 62 62 62 62 61 61 61 61 60 61 61 61 61 59 58 56
34 35 37 38 40 42 43 45 46 47 49 50 51 52 54 55 55 56 57 58 58 58 58 58 58 58 57 56 57 57 57 57 56 56 55 53 52 52
35 37 38 39 41 42 43 45 46 47 48 49 50 51 52 53 53 53 54 54 54 54 53 52 52 53 53 52 52 52 51 51 50 49 49 49 49 47
36 37 38 40 41 42 43 44 44 45 46 46 47 48 48 49 49 49 50 49 48 47 46 45 45 45 45 45 44 45 44 44 44 44 44 43 42 41
36 37 38 39 40 41 41 41 42 42 42 43 43 44 44 44 45 44 43 41 40 40 39 37 36 36 36 35 35 35 35 36 36 37 37 36 36 37
35 36 37 37 37 38 38 39 39 39 39 39 40 40 40 40 39 38 36 34 33 33 33 31 30 30 29 29 30 30 30 31 31 31 31 32 33 34
34 34 34 34 34 36 36 35 35 35 35 35 35 35 35 34 33 31 30 29 29 29 28 27 27 27 27 27 27 27 26 26 26 27 28 29 29 30
30 30 30 30 30 29 29 29 29 28 28 29 29 28 28 27 27 26 26 25 24 24 23 23 23 23 23 23 23 22 22 23 23 24 25 26 26 27
25 25 25 25 25 25 24 24 24 25 25 25 24 24 24 24 23 22 21 21 19 19 20 20 19 18 18 18 18 18 19 19 21 22 22 23 24 25
23 23 23 22 22 22 22 22 22 22 22 22 21 21 21 21 20 19 18 17 16 15 15 15 15 15 14 14 15 16 17 18 19 20 20 21 22 23
20 20 20 19 20 20 20 20 20 19 19 20 19 19 19 19 18 16 15 14 13 12 12 12 12 12 13 13 14 16 16 17 18 18 19 20 21 21
18 17 17 17 17 18 18 18 18 17 17 17 17 17 17 15 14 14 13 12 11 11 11 10 10 11 12 12 14 15 16 17 18 18 19 20 21 20
15 15 15 16 16 17 17 17 16 16 16 16 15 15 14 13 12 11 11 11 10 10 9 9 9 10 11 12 13 14 15 16 18 19 20 20 20 20
13 13 14 15 15 16 15 15 15 15 14 14 14 13 12 11 11 10 10 10 9 8 8 8 8 9 10 12 12 13 15 16 18 19 20 21 21 21
12 13 13 13 14 14 14 14 14 13 13 13 12 11 11 10 10 9 9 8 8 7 7 7 8 9 10 11 12 13 15 16 18 19 20 21 22 22
12 12 12 13 13 13 13 13 13 12 12 11 10 10 9 9 8 7 7 7 6 6 6 7 8 9 10 11 12 14 15 17 18 19 20 21 22 23
11 11 12 12 13 13 13 12 12 11 10 10 9 8 8 7 7 6 6 6 6 6 6 6 8 9 10 11 13 14 15 17 18 19 20 21 22 23
10 11 11 12 12 12 11 11 10 10 9 9 8 7 7 6 5 4 5 5 6 6 6 7 8 9 10 12 13 14 15 16 18 19 20 21 22 23
9 10 11 11 11 11 10 10 9 9 8 8 7 6 6 5 4 3 4 5 5 6 7 7 8 9 10 12 13 14 15 16 17 19 20 21 22 23
9 10 10 10 10 10 10 9 9 8 8 7 6 5 4 4 3 3 4 4 5 5 6 7 8 9 10 11 13 14 15 16 17 18 19 20 21 22
8 9 9 9 9 9 9 8 8 7 7 6 5 5 4 4 4 4 4 4 5 5 6 7 8 9 10 11 12 13 14 15 16 18 19 20 21 22
8 8 9 8 8 8 8 7 7 6 5 5 5 4 4 4 4 4 5 5 5 6 7 7 8 9 10 11 12 13 13 15 16 17 18 20 21 21
Wind_Direction
266 268 271 272 273 275 276 277 277 278 278 278 279 279 279 279 279 279 278 278 279 279 278 278 278 277 276 275 274 273 273 274 275 276 277 278 279 279
268 271 272 274 275 276 277 278 279 280 281 281 281 281 281 281 281 281 280 280 280 280 280 279 278 277 277 275 274 275 276 275 276 278 278 280 280 280
270 272 274 276 278 279 281 282 282 283 283 283 283 283 283 283 283 283 283 283 282 282 282 281 279 279 278 276 276 276 277 278 280 281 281 282 283 282
274 276 278 279 280 281 282 283 283 283 284 284 285 285 285 286 286 286 286 286 285 284 283 282 282 281 280 280 279 279 280 282 283 284 284 285 286 286
277 279 280 281 282 283 284 284 285 285 286 287 287 288 288 289 289 289 288 288 287 287 287 286 286 286 285 284 284 284 285 286 286 286 287 289 289 288
280 281 282 283 284 285 285 286 286 287 289 290 291 292 292 293 292 292 291 291 291 291 291 291 290 290 289 289 289 289 289 289 290 290 291 292 291 291
282 283 284 285 286 287 287 288 289 290 291 293 294 295 295 296 295 295 295 295 295 294 293 293 294 294 293 292 294 295 295 295 296 297 296 295 294 294
285 285 286 287 288 289 290 291 292 293 295 296 298 299 299 300 300 299 299 299 297 296 296 296 297 296 295 296 299 300 301 302 302 301 301 301 300 300
287 288 290 291 293 294 295 296 298 300 302 303 304 304 304 304 305 304 304 304 303 303 303 302 301 301 300 301 303 304 305 305 305 306 308 308 307 307
290 292 293 296 297 300 302 304 306 307 309 309 309 309 309 310 312 312 311 313 311 307 307 308 309 308 308 310 311 312 313 314 315 316 317 317 317 316
292 294 297 299 301 305 307 309 310 312 313 315 315 313 313 315 316 317 317 316 315 314 312 314 316 317 319 320 322 323 324 324 326 326 326 326 325 326
295 298 300 303 305 307 310 311 313 315 317 318 319 319 319 320 321 323 323 322 323 323 324 325 327 329 332 334 334 334 335 336 337 337 337 337 338 338
298 301 304 306 308 311 312 312 315 316 318 319 320 321 322 324 327 329 330 330 330 331 331 334 337 339 341 342 343 345 347 348 350 351 351 350 350 350
300 303 306 309 311 312 313 314 315 317 318 320 322 325 326 328 331 333 336 337 335 335 338 343 346 349 351 353 355 358 359 359 1 2 2 2 3 2
302 305 309 311 314 315 316 316 316 318 319 320 323 326 329 332 334 336 340 341 342 345 350 357 360 1 1 3 5 8 9 10 10 11 12 13 13 13
304 308 311 314 316 318 319 318 318 319 321 322 324 327 330 334 339 344 349 353 356 0 4 9 12 12 12 14 16 18 18 18 19 21 21 21 22 23
306 309 312 315 317 318 319 321 322 324 325 325 327 329 334 339 342 347 355 1 4 9 15 19 21 25 27 27 27 28 27 27 28 29 29 29 30 31
308 311 314 317 319 321 322 323 325 327 330 330 330 333 337 342 348 354 3 12 17 19 25 29 31 33 34 35 35 34 34 35 36 36 36 37 36 36
312 315 318 320 321 323 326 328 330 332 334 336 338 340 344 350 358 7 15 24 30 34 39 42 41 40 40 40 40 41 43 42 41 40 39 39 38 38
318 321 324 326 326 328 331 333 334 336 339 340 343 348 355 4 15 25 35 41 44 45 47 48 47 47 46 46 48 50 50 48 44 42 41 40 39 38
324 327 329 331 332 334 337 338 339 340 342 346 351 359 11 26 41 52 56 57 58 61 59 56 54 54 53 53 53 54 52 48 45 43 41 40 39 38
330 333 335 336 337 340 342 344 346 347 351 359 8 18 32 48 60 69 70 70 73 72 69 66 64 62 61 60 59 56 52 49 47 44 42 40 38 36
337 339 340 341 343 346 349 352 355 359 4 13 24 36 50 65 74 77 77 80 82 82 82 78 74 71 68 65 61 56 52 49 46 43 40 38 35 33
Height
5796 5796 5795 5794 5792 5790 5788 5786 5784 5780 5778 5775 5772 5769 5765 5762 5758 5754 5750 5746 5742 5738 5734 5731 5727 5724 5721 5718 5715 5712 5709 5705 5702 5698 5694 5691 5687 5684
5788 5787 5786 5784 5782 5780 5777 5775 5772 5769 5765 5762 5759 5755 5751 5747 5743 5739 5735 5731 5727 5722 5718 5714 5710 5707 5704 5701 5698 5695 5692 5689 5685 5682 5678 5675 5672 5669
5779 5777 5776 5774 5772 5769 5767 5763 5760 5757 5753 5749 5746 5741 5737 5733 5729 5724 5720 5715 5711 5707 5702 5698 5694 5691 5687 5685 5682 5679 5676 5673 5670 5667 5663 5661 5657 5655
5769 5768 5766 5764 5761 5758 5755 5752 5748 5745 5741 5737 5732 5728 5724 5719 5715 5710 5705 5700 5696 5692 5687 5683 5680 5676 5673 5671 5668 5665 5662 5659 5657 5654 5651 5649 5646 5641
5760 5758 5756 5753 5751 5747 5744 5740 5737 5733 5729 5724 5720 5716 5711 5706 5701 5697 5691 5687 5682 5678 5674 5670 5667 5663 5660 5658 5655 5653 5651 5649 5646 5643 5640 5637 5633 5630
5750 5748 5745 5743 5740 5736 5733 5729 5726 5722 5717 5713 5709 5704 5699 5694 5690 5685 5680 5675 5671 5667 5663 5660 5656 5654 5651 5649 5646 5644 5641 5639 5636 5633 5630 5626 5623 5620
5741 5738 5735 5732 5729 5726 5723 5719 5715 5711 5707 5703 5698 5694 5689 5684 5679 5674 5670 5666 5662 5659 5655 5652 5649 5647 5644 5641 5639 5636 5634 5631 5628 5624 5621 5618 5614 5610
5732 5729 5726 5723 5719 5716 5712 5709 5705 5701 5697 5693 5689 5684 5680 5675 5671 5666 5662 5659 5656 5652 5649 5646 5643 5640 5638 5635 5632 5630 5627 5624 5621 5617 5614 5610 5605 5601
5723 5720 5717 5714 5710 5707 5703 5700 5696 5692 5689 5685 5681 5676 5672 5668 5664 5660 5656 5653 5650 5646 5644 5641 5638 5635 5632 5630 5627 5624 5621 5618 5615 5611 5607 5603 5598 5593
5715 5712 5709 5706 5703 5700 5696 5693 5689 5686 5683 5679 5675 5671 5667 5663 5659 5656 5652 5648 5645 5642 5639 5637 5634 5631 5629 5626 5623 5620 5617 5614 5610 5606 5602 5597 5593 5588
5709 5706 5703 5700 5697 5694 5691 5687 5684 5681 5677 5674 5670 5666 5663 5659 5656 5652 5649 5646 5643 5640 5637 5634 5632 5629 5626 5623 5621 5618 5614 5611 5607 5603 5598 5594 5589 5583
5703 5700 5697 5695 5692 5689 5686 5683 5680 5677 5673 5670 5666 5663 5659 5656 5653 5649 5646 5644 5641 5638 5635 5633 5630 5628 5625 5622 5619 5616 5612 5609 5605 5600 5596 5591 5585 5580
5698 5696 5693 5691 5688 5685 5682 5679 5676 5673 5670 5667 5663 5660 5657 5654 5651 5647 5645 5642 5640 5637 5634 5632 5629 5627 5624 5622 5619 5615 5611 5607 5603 5598 5594 5589 5583 5578
5694 5691 5689 5687 5684 5681 5678 5675 5673 5670 5667 5664 5661 5658 5655 5652 5649 5646 5643 5641 5638 5636 5634 5631 5629 5627 5624 5622 5619 5615 5611 5607 5603 5598 5593 5588 5583 5577
5690 5688 5685 5683 5681 5678 5675 5672 5670 5667 5664 5661 5658 5656 5653 5650 5647 5645 5642 5640 5637 5635 5633 5631 5629 5627 5625 5622 5619 5616 5612 5608 5603 5599 5594 5589 5583 5578
5687 5685 5682 5680 5677 5675 5672 5669 5667 5664 5661 5659 5656 5654 5651 5649 5646 5644 5642 5640 5638 5636 5634 5632 5630 5628 5626 5623 5620 5617 5613 5609 5605 5600 5595 5591 5586 5580
5683 5681 5679 5677 5674 5672 5669 5667 5664 5662 5659 5657 5654 5652 5650 5647 5645 5643 5641 5639 5638 5636 5635 5633 5631 5629 5627 5624 5621 5618 5614 5611 5607 5602 5598 5594 5589 5584
5681 5679 5676 5674 5672 5669 5667 5664 5662 5659 5657 5655 5652 5650 5648 5646 5645 5643 5641 5640 5638 5637 5635 5634 5632 5630 5629 5626 5623 5620 5617 5613 5609 5606 5602 5597 5593 5588
5678 5676 5674 5671 5669 5666 5664 5662 5659 5657 5655 5653 5651 5649 5647 5646 5644 5643 5642 5640 5639 5638 5636 5635 5634 5632 5630 5628 5625 5622 5619 5616 5613 5609 5605 5601 5597 5592
5675 5673 5671 5669 5666 5664 5662 5660 5657 5655 5653 5652 5650 5648 5647 5645 5644 5643 5642 5641 5640 5639 5638 5637 5635 5633 5632 5630 5628 5625 5622 5619 5616 5613 5609 5605 5601 5596
5673 5671 5669 5667 5664 5662 5660 5658 5656 5654 5652 5650 5649 5648 5646 5645 5644 5643 5643 5642 5641 5640 5639 5638 5637 5635 5634 5632 5630 5628 5625 5622 5619 5616 5612 5608 5605 5600
5671 5669 5667 5665 5663 5661 5659 5657 5655 5653 5651 5650 5649 5647 5646 5645 5645 5644 5643 5643 5642 5641 5641 5640 5639 5638 5636 5634 5632 5630 5628 5626 5623 5619 5615 5612 5608 5604
5670 5668 5666 5664 5662 5660 5658 5656 5654 5652 5651 5650 5649 5648 5647 5646 5645 5645 5644 5644 5644 5643 5642 5642 5641 5640 5638 5637 5635 5633 5631 5628 5626 5622 5619 5615 5611 5607